Portada
METAR-TAF:

METAR-TAF

Aeroports :

Morris Municipal Airport (James R. Washburn Field)

Morris, Illinois, Estats Units d'Amèrica

latitud: 41-25-31N, longitud: 088-25-07W, altitud: 178 m

Observació

L'informe es va fer fa 33 minuts, a les 17:15 UTC
Vent calma
Temperatura -5°C
Humitat 93%
Pressió 1026 hPa
Visibilitat: 0.4 km
Cel cobert a una alçada de 200 ft
boira gebradora

METAR: KC09 101715Z AUTO 00000KT 1/4SM FZFG OVC002 M05/M06 A3029 RMK AO2 T10521058

Hora: 11:48 (17:48 UTC)


TAF: manca

Observacions i pronòstics meteorològics de més de 4000 aeroports (METAR i TAF).

Les estacions disponibles són els punts grocs i vermells al mapa.

Posi el ratolí al punt desitjat per veure el nom de l'estació.

Feu clic per veure les observacions i els pronòstics meteorològics.

Per canviar el mapa: feu clic els botons verds amb una creu de color negre per apropar; al botó verd amb un guió per allunyar la imatge; o en les fletxes verdes per a mapes adjacents.


METAR-TAF: